Terminal Aerodrome Forecast
Issued by NWS

Home | Current Version | Previous Version | Text Only | Print | Product List | Glossary On
Versions: 1 2 3 4 5 6 7 8 9 10 11 12 13 14 15 16 17 18 19 20 21 22 23 24 25 26 27 28 29 30 31 32 33 34 35 36 37 38 39 40 41 42 43 44 45 46 47 48 49 50
932
FTUS46 KSEW 192101 AAA
TAFSEA
TAF AMD
KSEA 192101Z 1921/2024 24004KT P6SM SCT035 BKN150 BKN200
     FM200400 VRB05KT P6SM BKN060
     FM200600 17004KT P6SM BKN060 OVC100
     FM201100 VRB05KT P6SM OVC022
     FM201300 10002KT P6SM OVC015=

USA.gov is the U.S. government's official web portal to all federal, state and local government web resources and services.